Franklin, NC

6:24 AM EDT on May 26, 2017 (GMT -0400)
Franklin

Weather History for K1A5 - February, 2014

Change the Weather History Date:

Sunday, February 16, 2014

  Actual Average (KTOC) Record (KTOC)
Temperature  
Mean Temperature 39 °F -  
Max Temperature 55 °F 57 °F 64 °F (2014)
Min Temperature 23 °F 36 °F 28 °F (2015)
Degree Days  
Heating Degree Days 26    
Moisture  
Dew Point 24 °F    
Average Humidity 62    
Maximum Humidity 92    
Minimum Humidity 24    
Precipitation  
Precipitation 0.00 in - - ()
Sea Level Pressure  
Sea Level Pressure 30.08 in    
Wind  
Wind Speed 2 mph (NW)    
Max Wind Speed 14 mph    
Max Gust Speed 21 mph    
Visibility 10 miles    
Events      
Averages and records for this station are not official NWS values.
T = Trace of Precipitation, MM = Missing Value Source: NWS Daily Summary

Daily Weather History Graph

Daily Weather History Graph

Search for Another Location

Airport or City:

Trip Planner

Search our weather history database for the weather conditions in past years. The results will help you decide how hot, cold, wet, or windy it might be!

Date:

Astronomy

Feb. 16, 2014 Rise Set
Actual Time 7:18 AM EST 6:17 PM EST
Civil Twilight 6:52 AM EST 6:43 PM EST
Nautical Twilight 6:23 AM EST 7:12 PM EST
Astronomical Twilight 5:53 AM EST 7:42 PM EST
Moon 8:06 PM EST (2/16) 7:53 AM EST (2/16)
Length of Visible Light 11h 50m
Length of Day
10h 58m
Full, 97% of the Moon is Illuminated
Feb 16
Full
Feb 22
Last Quarter
Mar 1
New
Mar 8
First Quarter
Mar 16
Full

Hourly Weather History & Observations

Time (EST) Temp. Windchill Dew Point Humidity Pressure Visibility Wind Dir Wind Speed Gust Speed Precip Events Conditions
12:15 AM 32.0 °F - 21.7 °F 66% 30.09 in 10.0 mi Calm Calm - N/A   Overcast
12:35 AM 32.0 °F 27.5 °F 22.6 °F 68% 30.06 in 10.0 mi ENE 4.6 mph - N/A   Overcast
12:55 AM 32.0 °F - 21.7 °F 66% 30.06 in 10.0 mi Calm Calm - N/A   Overcast
1:15 AM 32.0 °F 28.7 °F 23.9 °F 72% 30.06 in 10.0 mi West 3.5 mph - N/A   Overcast
1:35 AM 31.8 °F 24.6 °F 24.3 °F 74% 30.07 in 10.0 mi West 8.1 mph - N/A   Overcast
1:55 AM 32.0 °F - 24.4 °F 74% 30.06 in 10.0 mi Calm Calm - N/A   Overcast
2:15 AM 32.0 °F - 24.4 °F 74% 30.05 in 10.0 mi Calm Calm - N/A   Overcast
2:35 AM 32.0 °F - 25.0 °F 75% 30.05 in 10.0 mi Calm Calm - N/A   Overcast
2:55 AM 31.6 °F - 25.2 °F 77% 30.04 in 10.0 mi Calm Calm - N/A   Overcast
3:15 AM 31.6 °F - 24.4 °F 75% 30.03 in 10.0 mi Calm Calm - N/A   Overcast
3:35 AM 31.8 °F - 24.3 °F 74% 30.03 in 10.0 mi Calm Calm - N/A   Overcast
3:55 AM 30.9 °F - 25.2 °F 79% 30.03 in 10.0 mi Calm Calm - N/A   Overcast
4:15 AM 31.3 °F - 25.3 °F 79% 30.03 in 10.0 mi Calm Calm - N/A   Overcast
4:35 AM 31.3 °F - 25.7 °F 80% 30.03 in 10.0 mi Calm Calm - N/A   Overcast
4:55 AM 30.7 °F - 25.7 °F 82% 30.04 in 10.0 mi Calm Calm - N/A   Overcast
5:15 AM 29.3 °F - 24.8 °F 83% 30.05 in 10.0 mi Calm Calm - N/A   Scattered Clouds
5:35 AM 27.1 °F - 23.7 °F 87% 30.05 in 10.0 mi Calm Calm - N/A   Clear
5:55 AM 26.6 °F - 23.4 °F 88% 30.06 in 10.0 mi Calm Calm - N/A   Clear
6:15 AM 25.7 °F - 22.8 °F 89% 30.06 in 10.0 mi Calm Calm - N/A   Scattered Clouds
6:35 AM 25.7 °F - 23.0 °F 89% 30.06 in 10.0 mi Calm Calm - N/A   Mostly Cloudy
6:55 AM 24.6 °F - 21.9 °F 89% 30.06 in 10.0 mi Calm Calm - N/A   Scattered Clouds
7:15 AM 24.6 °F - 22.1 °F 90% 30.06 in 10.0 mi Calm Calm - N/A   Clear
7:35 AM 23.9 °F - 21.4 °F 90% 30.07 in 10.0 mi Calm Calm - N/A   Clear
7:55 AM 24.4 °F - 22.1 °F 91% 30.07 in 10.0 mi Calm Calm - N/A   Clear
8:15 AM 26.4 °F - 24.3 °F 92% 30.08 in 10.0 mi Calm Calm - N/A   Clear
8:35 AM 27.9 °F - 25.2 °F 90% 30.07 in 10.0 mi Calm Calm - N/A   Clear
8:55 AM 30.4 °F - 26.2 °F 85% 30.08 in 10.0 mi Calm Calm - N/A   Clear
9:15 AM 32.9 °F - 26.8 °F 78% 30.08 in 10.0 mi Calm Calm - N/A   Clear
9:35 AM 36.3 °F - 28.2 °F 72% 30.07 in 10.0 mi Calm Calm - N/A   Clear
9:55 AM 40.1 °F - 24.3 °F 53% 30.07 in 10.0 mi Calm Calm - N/A   Clear
10:15 AM 41.2 °F 38.2 °F 24.3 °F 51% 30.07 in 10.0 mi SW 4.6 mph - N/A   Clear
10:35 AM 43.5 °F 40.9 °F 23.5 °F 45% 30.07 in 10.0 mi WNW 4.6 mph - N/A   Clear
10:55 AM 45.0 °F 41.2 °F 24.1 °F 44% 30.07 in 10.0 mi NW 6.9 mph - N/A   Clear
11:15 AM 46.6 °F - 24.8 °F 43% 30.07 in 10.0 mi NW 4.6 mph - N/A   Clear
11:35 AM 47.5 °F - 24.6 °F 41% 30.07 in 10.0 mi Calm Calm - N/A   Clear
11:55 AM 49.1 °F - 25.3 °F 40% 30.06 in 10.0 mi North 6.9 mph - N/A   Clear
12:15 PM 50.4 °F - 24.8 °F 37% 30.06 in 10.0 mi North 3.5 mph - N/A   Clear
12:35 PM 51.4 °F - 24.4 °F 35% 30.06 in 10.0 mi North 4.6 mph - N/A   Clear
12:55 PM 52.0 °F - 23.7 °F 33% 30.05 in 10.0 mi NW 4.6 mph - N/A   Clear
1:15 PM 52.9 °F - 23.2 °F 31% 30.05 in 10.0 mi NW 8.1 mph - N/A   Clear
1:35 PM 53.8 °F - 21.9 °F 29% 30.05 in 10.0 mi NW 9.2 mph 17.3 mph N/A   Clear
1:55 PM 54.0 °F - 18.5 °F 25% 30.04 in 10.0 mi NW 11.5 mph 20.7 mph N/A   Clear
2:15 PM 54.7 °F - 20.8 °F 27% 30.03 in 10.0 mi NNW 4.6 mph 20.7 mph N/A   Clear
2:35 PM 54.7 °F - 19.9 °F 26% 30.04 in 10.0 mi NW 8.1 mph 16.1 mph N/A   Clear
2:55 PM 55.6 °F - 19.9 °F 25% 30.03 in 10.0 mi NW 6.9 mph - N/A   Clear
3:15 PM 55.4 °F - 19.9 °F 25% 30.03 in 10.0 mi West 12.7 mph 17.3 mph N/A   Clear
3:35 PM 55.2 °F - 20.1 °F 25% 30.03 in 10.0 mi West 11.5 mph 19.6 mph N/A   Clear
3:55 PM 55.0 °F - 20.3 °F 26% 30.04 in 10.0 mi West 13.8 mph 18.4 mph N/A   Clear
4:15 PM 55.0 °F - 19.8 °F 25% 30.04 in 10.0 mi WNW 8.1 mph 20.7 mph N/A   Clear
4:35 PM 54.5 °F - 18.5 °F 24% 30.05 in 10.0 mi WNW 10.4 mph 18.4 mph N/A   Clear
4:55 PM 53.8 °F - 20.5 °F 27% 30.06 in 10.0 mi NNW 5.8 mph - N/A   Clear
5:15 PM 52.7 °F - 20.1 °F 28% 30.07 in 10.0 mi NNW 9.2 mph - N/A   Clear
5:35 PM 51.8 °F - 21.0 °F 30% 30.07 in 10.0 mi North 6.9 mph - N/A   Clear
5:55 PM 50.0 °F - 21.0 °F 32% 30.08 in 10.0 mi North 5.8 mph - N/A   Clear
6:15 PM 48.6 °F - 22.1 °F 35% 30.10 in 10.0 mi NNW 6.9 mph - N/A   Clear
6:35 PM 46.9 °F - 23.5 °F 40% 30.11 in 10.0 mi NNW 4.6 mph - N/A   Clear
6:55 PM 47.3 °F - 23.5 °F 39% 30.11 in 10.0 mi North 5.8 mph - N/A   Clear
7:15 PM 41.2 °F 39.2 °F 27.1 °F 57% 30.12 in 10.0 mi West 3.5 mph - N/A   Clear
7:35 PM 37.6 °F 34.0 °F 28.0 °F 68% 30.13 in 10.0 mi WSW 4.6 mph - N/A   Clear
7:55 PM 34.3 °F - 28.0 °F 78% 30.13 in 10.0 mi Calm Calm - N/A   Clear
8:15 PM 34.3 °F - 27.7 °F 77% 30.13 in 10.0 mi Calm Calm - N/A   Clear
8:35 PM 33.4 °F - 27.9 °F 80% 30.14 in 10.0 mi Calm Calm - N/A   Clear
8:55 PM 31.3 °F - 26.4 °F 82% 30.15 in 10.0 mi Calm Calm - N/A   Clear
9:15 PM 31.3 °F - 27.0 °F 84% 30.15 in 10.0 mi Calm Calm - N/A   Clear
9:35 PM 29.1 °F - 24.6 °F 83% 30.15 in 10.0 mi Calm Calm - N/A   Clear
9:55 PM 28.9 °F - 25.0 °F 85% 30.15 in 10.0 mi Calm Calm - N/A   Clear
10:15 PM 28.6 °F - 25.2 °F 87% 30.16 in 10.0 mi Calm Calm - N/A   Clear
10:35 PM 28.2 °F - 25.2 °F 88% 30.15 in 10.0 mi Calm Calm - N/A   Clear
10:55 PM 27.3 °F - 23.9 °F 87% 30.15 in 10.0 mi Calm Calm - N/A   Clear
11:15 PM 27.5 °F - 24.4 °F 88% 30.15 in 10.0 mi Calm Calm - N/A   Clear
11:35 PM 26.6 °F - 23.7 °F 89% 30.16 in 10.0 mi Calm Calm - N/A   Clear
11:55 PM 27.1 °F - 24.3 °F 89% 30.16 in 10.0 mi Calm Calm - N/A   Clear